CDT,Max TemperatureF,Mean TemperatureF,Min TemperatureF,Max Dew PointF,MeanDew PointF,Min DewpointF,Max Humidity, Mean Humidity, Min Humidity, Max Sea Level PressureIn, Mean Sea Level PressureIn, Min Sea Level PressureIn, Max VisibilityMiles, Mean VisibilityMiles, Min VisibilityMiles, Max Wind SpeedMPH, Mean Wind SpeedMPH, Max Gust SpeedMPH,PrecipitationIn, CloudCover, Events, WindDirDegrees
2013-10-1,82,68,56,67,60,54,94,78,49,30.00,29.93,29.89,10,9,5,20,10,26,0.00,2,,215
2013-10-2,81,63,46,59,49,34,95,65,22,30.13,30.05,29.99,10,8,0,14,3,16,0.00,2,Fog,108
2013-10-3,79,69,59,73,65,51,95,89,76,29.99,29.92,29.85,10,8,0,21,5,16,1.06,5,Rain-Thunderstorm,154
2013-10-4,71,68,64,70,66,62,96,93,83,30.04,29.95,29.89,10,5,1,29,7,36,1.05,6,Rain-Thunderstorm,141
2013-10-5,77,68,59,73,65,46,96,88,61,29.94,29.87,29.79,10,7,2,16,7,20,0.03,5,Rain-Thunderstorm,192
2013-10-6,56,49,41,47,42,39,93,77,55,29.82,29.78,29.73,10,10,7,13,6,21,0.00,4,Rain,233
2013-10-7,71,56,41,50,45,39,95,75,37,30.10,29.95,29.79,10,10,10,15,7,23,0.00,2,,269
2013-10-8,77,59,41,53,45,39,95,65,30,30.19,30.14,30.11,10,10,10,16,4,20,0.00,0,,187
2013-10-9,74,60,46,53,44,32,92,65,21,30.24,30.19,30.14,10,10,10,10,5,,0.00,0,,156
2013-10-10,75,58,41,54,49,40,95,75,44,30.19,30.12,30.05,10,8,0,10,4,,0.00,0,Fog,146
2013-10-11,79,66,54,63,55,51,93,76,44,30.06,30.00,29.93,10,8,3,22,6,29,0.00,2,,149
2013-10-12,69,57,43,61,51,38,88,70,36,30.21,30.02,29.92,10,10,7,17,10,23,0.00,2,Rain,225
2013-10-13,62,50,38,45,36,30,90,65,30,30.43,30.37,30.21,10,10,10,14,4,18,0.00,0,,293
2013-10-14,64,48,33,47,40,32,93,75,43,30.43,30.31,30.12,10,10,1,14,4,20,0.00,0,,101
2013-10-15,66,56,47,62,50,42,94,83,64,30.11,29.90,29.77,10,8,2,20,10,26,0.27,5,Rain,189
2013-10-16,54,50,47,50,47,44,93,87,79,29.97,29.90,29.84,10,10,2,15,10,21,0.00,8,Rain,254
2013-10-17,56,46,38,48,43,36,95,86,55,29.95,29.89,29.85,10,8,2,14,4,17,0.18,5,Rain,255
2013-10-18,49,45,41,43,39,36,91,79,62,29.98,29.93,29.84,10,10,7,17,9,22,0.00,6,,254
2013-10-19,54,45,36,41,38,32,93,83,44,29.95,29.85,29.78,10,10,5,18,7,28,0.03,4,Rain,237
2013-10-20,56,44,33,50,41,32,95,84,67,29.87,29.81,29.74,10,9,3,14,6,16,0.01,4,Rain,211
2013-10-21,49,42,30,44,31,22,86,68,46,29.99,29.94,29.81,10,10,10,18,10,26,0.00,5,,273
2013-10-22,41,34,27,37,31,24,94,87,74,30.00,29.97,29.93,10,10,3,10,3,,0.00,4,Rain-Snow,245
2013-10-23,45,36,28,34,29,24,92,74,51,30.05,30.01,29.96,10,10,10,18,7,22,0.00,6,,283
2013-10-24,42,36,31,30,27,24,81,68,52,30.33,30.20,30.05,10,10,10,17,7,21,0.00,6,,295
2013-10-25,54,40,25,33,27,22,90,62,36,30.40,30.26,30.03,10,10,10,20,9,28,0.00,2,,231
2013-10-26,54,42,31,36,30,27,86,58,41,30.11,29.98,29.87,10,10,10,21,14,29,0.00,2,,274
2013-10-27,55,41,28,34,30,26,88,66,36,30.10,30.03,29.95,10,10,10,15,6,21,0.00,0,,228
2013-10-28,49,40,30,40,34,29,91,81,70,30.39,30.26,30.06,10,10,10,18,6,22,0.00,3,,52
2013-10-29,59,46,33,45,37,31,92,73,38,30.38,30.27,30.14,10,10,7,13,7,16,0.00,3,,97
2013-10-30,61,50,41,58,51,38,96,93,82,30.13,29.99,29.76,10,3,0,20,6,31,0.33,7,Fog-Rain,133
2013-10-31,64,54,43,62,54,41,94,93,88,29.74,29.49,29.33,10,8,1,18,11,24,0.38,8,Rain,237